Tracking 30970 objects as of 3-Jul-2025
HD Live streaming from Space Station
objects crossing your sky now

FENGYUN 1C DEB

Track FENGYUN 1C DEB now!
10-day predictions


NORAD ID: 29871
Int'l Code: 1999-025FR
Perigee: 720.0 km
Apogee: 802.4 km
Inclination: 99.0 °
Period: 99.9 minutes
Semi major axis: 7132 km
RCS: 0.051 m2 (small)
Launch date: May 10, 1999
Source: People's Republic of China (PRC)
Launch site: Taiyaun Space Center, China (TSC)

Note: This is SATELLITE DEBRIS
Your satellite tracking list
Your tracking list is empty




NASA's NSSDC Master Catalog

Two Line Element Set (TLE):
1 29871U 99025FR  25183.85900964  .00001572  00000-0  49109-3 0  9993
2 29871  98.9545 128.9346 0057748 230.7643 198.0224 14.41350522963548
Source of the keplerian elements: AFSPC